Time,TemperatureF,DewpointF,PressureIn,WindDirection,WindDirectionDegrees,WindSpeedMPH,WindSpeedGustMPH,Humidity,HourlyPrecipIn,Conditions,Clouds,dailyrainin,SolarRadiationWatts/m^2,SoftwareType,DateUTC
2013-03-01 00:00:00,27.9,24.0,30.00,WSW,257,4.0,4.0,85,0.00,,,0.00,0,Wunderground v.1.15,2013-03-01 05:00:00,
2013-03-01 00:05:00,27.9,24.0,30.00,West,263,4.0,7.0,85,0.00,,,0.00,0,Wunderground v.1.15,2013-03-01 05:05:00,
2013-03-01 00:10:00,27.9,24.0,30.00,NW,321,3.0,3.0,85,0.00,,,0.00,0,Wunderground v.1.15,2013-03-01 05:10:00,
2013-03-01 00:15:00,27.9,24.0,30.00,NNE,19,3.0,7.0,85,0.00,,,0.00,0,Wunderground v.1.15,2013-03-01 05:15:00,
2013-03-01 00:20:00,28.0,24.1,30.00,WSW,237,1.0,1.0,85,0.00,,,0.00,0,Wunderground v.1.15,2013-03-01 05:20:00,
2013-03-01 00:30:00,27.9,24.0,30.00,WSW,248,1.0,7.0,85,0.00,,,0.00,0,Wunderground v.1.15,2013-03-01 05:30:00,
2013-03-01 00:35:00,27.9,24.0,30.00,WSW,250,2.0,7.0,85,0.00,,,0.00,0,Wunderground v.1.15,2013-03-01 05:35:00,
2013-03-01 00:45:00,28.0,24.1,30.01,West,279,1.0,4.0,85,0.00,,,0.00,0,Wunderground v.1.15,2013-03-01 05:45:00,
2013-03-01 00:50:00,28.1,24.2,30.01,WSW,240,2.0,7.0,85,0.00,,,0.00,0,Wunderground v.1.15,2013-03-01 05:50:00,
2013-03-01 01:00:00,28.2,24.0,30.02,WSW,250,1.0,1.0,84,0.00,,,0.00,0,Wunderground v.1.15,2013-03-01 06:00:00,
2013-03-01 01:10:00,28.3,24.1,30.02,WSW,252,1.0,1.0,84,0.00,,,0.00,0,Wunderground v.1.15,2013-03-01 06:10:00,
2013-03-01 01:15:00,28.3,24.1,30.03,SSW,203,1.0,7.0,84,0.00,,,0.00,0,Wunderground v.1.15,2013-03-01 06:15:00,
2013-03-01 01:20:00,28.3,24.1,30.03,North,360,2.0,2.0,84,0.00,,,0.00,0,Wunderground v.1.15,2013-03-01 06:20:00,
2013-03-01 01:30:00,28.3,24.1,30.02,WSW,250,3.0,7.0,84,0.00,,,0.00,0,Wunderground v.1.15,2013-03-01 06:30:00,
2013-03-01 01:35:00,28.3,24.1,30.02,WNW,285,3.0,7.0,84,0.00,,,0.00,0,Wunderground v.1.15,2013-03-01 06:35:00,
2013-03-01 01:40:00,28.3,24.1,30.01,WSW,247,4.0,4.0,84,0.00,,,0.00,0,Wunderground v.1.15,2013-03-01 06:40:00,
2013-03-01 01:50:00,28.3,24.1,30.01,West,271,1.0,1.0,84,0.00,,,0.00,0,Wunderground v.1.15,2013-03-01 06:50:00,
2013-03-01 02:00:00,28.3,24.1,30.01,WNW,283,1.0,7.0,84,0.00,,,0.00,0,Wunderground v.1.15,2013-03-01 07:00:00,
2013-03-01 02:10:00,28.2,24.0,30.00,WSW,243,1.0,7.0,84,0.00,,,0.00,0,Wunderground v.1.15,2013-03-01 07:10:00,
2013-03-01 02:20:00,28.2,24.3,30.00,WNW,284,1.0,1.0,85,0.00,,,0.00,0,Wunderground v.1.15,2013-03-01 07:20:00,
2013-03-01 02:25:00,28.2,24.3,30.00,SW,229,0.0,7.0,85,0.00,,,0.00,0,Wunderground v.1.15,2013-03-01 07:25:00,
2013-03-01 02:35:00,28.2,24.3,30.00,SSW,210,1.0,7.0,85,0.00,,,0.00,0,Wunderground v.1.15,2013-03-01 07:35:00,
2013-03-01 02:40:00,28.2,24.3,30.00,South,188,1.0,1.0,85,0.00,,,0.00,0,Wunderground v.1.15,2013-03-01 07:40:00,
2013-03-01 02:50:00,28.2,24.3,29.99,SSW,211,0.0,7.0,85,0.00,,,0.00,0,Wunderground v.1.15,2013-03-01 07:50:00,
2013-03-01 02:55:00,28.3,24.4,29.99,West,275,1.0,7.0,85,0.00,,,0.00,0,Wunderground v.1.15,2013-03-01 07:55:00,
2013-03-01 03:00:00,28.2,24.3,30.00,WSW,238,1.0,7.0,85,0.00,,,0.00,0,Wunderground v.1.15,2013-03-01 08:00:00,
2013-03-01 03:10:00,28.2,24.3,29.99,South,177,1.0,1.0,85,0.00,,,0.00,0,Wunderground v.1.15,2013-03-01 08:10:00,
2013-03-01 03:20:00,28.2,24.3,30.00,SSW,204,1.0,1.0,85,0.00,,,0.00,0,Wunderground v.1.15,2013-03-01 08:20:00,
2013-03-01 03:25:00,28.2,24.3,30.00,NNE,17,2.0,7.0,85,0.00,,,0.00,0,Wunderground v.1.15,2013-03-01 08:25:00,
2013-03-01 03:30:00,28.2,24.3,30.00,NW,304,4.0,4.0,85,0.00,,,0.00,0,Wunderground v.1.15,2013-03-01 08:30:00,
2013-03-01 03:40:00,28.2,24.3,30.00,South,191,2.0,2.0,85,0.00,,,0.00,0,Wunderground v.1.15,2013-03-01 08:40:00,
2013-03-01 03:50:00,28.2,24.3,30.00,SW,214,1.0,7.0,85,0.00,,,0.00,0,Wunderground v.1.15,2013-03-01 08:50:00,
2013-03-01 03:55:00,28.2,24.3,30.00,NNW,342,2.0,7.0,85,0.00,,,0.00,0,Wunderground v.1.15,2013-03-01 08:55:00,
2013-03-01 04:00:00,28.2,24.3,30.00,WSW,246,2.0,7.0,85,0.00,,,0.00,0,Wunderground v.1.15,2013-03-01 09:00:00,
2013-03-01 04:10:00,28.2,24.3,29.99,West,276,1.0,7.0,85,0.00,,,0.00,0,Wunderground v.1.15,2013-03-01 09:10:00,
2013-03-01 04:15:00,28.2,24.3,29.99,NNW,345,1.0,7.0,85,0.00,,,0.00,0,Wunderground v.1.15,2013-03-01 09:15:00,
2013-03-01 04:20:00,28.2,24.3,29.99,NNW,346,1.0,7.0,85,0.00,,,0.00,0,Wunderground v.1.15,2013-03-01 09:20:00,
2013-03-01 04:30:00,28.2,24.3,30.00,WNW,284,1.0,1.0,85,0.00,,,0.00,0,Wunderground v.1.15,2013-03-01 09:30:00,
2013-03-01 04:35:00,28.2,24.3,30.00,West,261,1.0,5.0,85,0.00,,,0.00,0,Wunderground v.1.15,2013-03-01 09:35:00,
2013-03-01 04:40:00,28.2,24.3,30.00,West,264,2.0,7.0,85,0.00,,,0.00,0,Wunderground v.1.15,2013-03-01 09:40:00,
2013-03-01 04:45:00,28.2,24.3,30.00,SW,219,2.0,7.0,85,0.00,,,0.00,0,Wunderground v.1.15,2013-03-01 09:45:00,
2013-03-01 04:55:00,28.2,24.3,30.00,SW,232,0.0,7.0,85,0.00,,,0.00,0,Wunderground v.1.15,2013-03-01 09:55:00,
2013-03-01 05:00:00,28.2,24.3,30.00,North,360,0.0,7.0,85,0.00,,,0.00,0,Wunderground v.1.15,2013-03-01 10:00:00,
2013-03-01 05:10:00,28.2,24.3,30.01,NNW,341,1.0,1.0,85,0.00,,,0.00,0,Wunderground v.1.15,2013-03-01 10:10:00,
2013-03-01 05:20:00,28.3,24.4,30.02,West,269,1.0,7.0,85,0.00,,,0.00,0,Wunderground v.1.15,2013-03-01 10:20:00,
2013-03-01 05:25:00,28.3,24.4,30.02,WSW,241,1.0,7.0,85,0.00,,,0.00,0,Wunderground v.1.15,2013-03-01 10:25:00,
2013-03-01 05:30:00,28.3,24.4,30.02,WNW,289,2.0,2.0,85,0.00,,,0.00,0,Wunderground v.1.15,2013-03-01 10:30:00,
2013-03-01 05:40:00,28.3,24.4,30.02,West,259,1.0,7.0,85,0.00,,,0.00,0,Wunderground v.1.15,2013-03-01 10:40:00,
2013-03-01 05:45:00,28.4,24.2,30.02,West,280,2.0,7.0,84,0.00,,,0.00,0,Wunderground v.1.15,2013-03-01 10:45:00,
2013-03-01 05:55:00,28.5,24.0,30.02,West,273,3.0,7.0,83,0.00,,,0.00,0,Wunderground v.1.15,2013-03-01 10:55:00,
2013-03-01 06:00:00,28.5,24.0,30.02,West,277,3.0,7.0,83,0.00,,,0.00,0,Wunderground v.1.15,2013-03-01 11:00:00,
2013-03-01 06:10:00,28.6,23.8,30.02,NNW,333,4.0,4.0,82,0.00,,,0.00,0,Wunderground v.1.15,2013-03-01 11:10:00,
2013-03-01 06:15:00,28.6,23.8,30.03,West,273,3.0,7.0,82,0.00,,,0.00,0,Wunderground v.1.15,2013-03-01 11:15:00,
2013-03-01 06:20:00,28.6,23.8,30.02,West,271,3.0,7.0,82,0.00,,,0.00,0,Wunderground v.1.15,2013-03-01 11:20:00,
2013-03-01 06:25:00,28.6,23.8,30.03,WSW,253,2.0,7.0,82,0.00,,,0.00,0,Wunderground v.1.15,2013-03-01 11:25:00,
2013-03-01 06:35:00,28.6,24.1,30.03,NNW,329,2.0,7.0,83,0.00,,,0.00,0,Wunderground v.1.15,2013-03-01 11:35:00,
2013-03-01 06:45:00,28.5,23.7,30.02,NW,309,2.0,7.0,82,0.00,,,0.00,0,Wunderground v.1.15,2013-03-01 11:45:00,
2013-03-01 06:50:00,28.5,23.7,30.02,WSW,250,1.0,7.0,82,0.00,,,0.00,0,Wunderground v.1.15,2013-03-01 11:50:00,
2013-03-01 06:55:00,28.5,23.7,30.02,NNE,13,2.0,7.0,82,0.00,,,0.00,0,Wunderground v.1.15,2013-03-01 11:55:00,
2013-03-01 07:00:00,28.5,23.7,30.02,WNW,288,3.0,7.0,82,0.00,,,0.00,0,Wunderground v.1.15,2013-03-01 12:00:00,
2013-03-01 07:10:00,28.5,23.7,30.02,SW,224,2.0,2.0,82,0.00,,,0.00,0,Wunderground v.1.15,2013-03-01 12:10:00,
2013-03-01 07:20:00,28.5,23.7,30.02,NNW,344,1.0,1.0,82,0.00,,,0.00,5,Wunderground v.1.15,2013-03-01 12:20:00,
2013-03-01 07:25:00,28.5,23.7,30.02,NNW,344,1.0,7.0,82,0.00,,,0.00,7,Wunderground v.1.15,2013-03-01 12:25:00,
2013-03-01 07:35:00,28.6,23.8,30.02,WNW,289,2.0,7.0,82,0.00,,,0.00,18,Wunderground v.1.15,2013-03-01 12:35:00,
2013-03-01 07:45:00,28.7,23.6,30.02,South,184,1.0,7.0,81,0.00,,,0.00,14,Wunderground v.1.15,2013-03-01 12:45:00,
2013-03-01 07:55:00,28.7,23.6,30.03,NW,321,1.0,7.0,81,0.00,,,0.00,21,Wunderground v.1.15,2013-03-01 12:55:00,
2013-03-01 08:00:00,28.8,23.7,30.03,NW,304,1.0,7.0,81,0.00,,,0.00,21,Wunderground v.1.15,2013-03-01 13:00:00,
2013-03-01 08:10:00,28.9,23.5,30.03,NNW,342,2.0,2.0,80,0.00,,,0.00,33,Wunderground v.1.15,2013-03-01 13:10:00,
2013-03-01 08:20:00,29.0,23.6,30.03,WNW,287,1.0,7.0,80,0.00,,,0.00,47,Wunderground v.1.15,2013-03-01 13:20:00,
2013-03-01 08:30:00,29.2,23.5,30.04,WNW,293,2.0,2.0,79,0.00,,,0.00,44,Wunderground v.1.15,2013-03-01 13:30:00,
2013-03-01 08:35:00,29.2,23.5,30.04,West,279,1.0,7.0,79,0.00,,,0.00,49,Wunderground v.1.15,2013-03-01 13:35:00,
2013-03-01 08:45:00,29.4,24.0,30.04,WSW,254,1.0,4.0,80,0.00,,,0.00,53,Wunderground v.1.15,2013-03-01 13:45:00,
2013-03-01 08:50:00,29.4,23.7,30.04,North,349,2.0,2.0,79,0.00,,,0.00,56,Wunderground v.1.15,2013-03-01 13:50:00,
2013-03-01 09:00:00,29.5,23.8,30.04,NW,309,2.0,7.0,79,0.00,,,0.00,83,Wunderground v.1.15,2013-03-01 14:00:00,
2013-03-01 09:10:00,29.7,23.7,30.05,West,261,2.0,7.0,78,0.00,,,0.00,77,Wunderground v.1.15,2013-03-01 14:10:00,
2013-03-01 09:15:00,29.8,23.8,30.05,NW,306,2.0,7.0,78,0.00,,,0.00,77,Wunderground v.1.15,2013-03-01 14:15:00,
2013-03-01 09:25:00,29.9,23.9,30.05,SW,230,1.0,6.0,78,0.00,,,0.00,72,Wunderground v.1.15,2013-03-01 14:25:00,
2013-03-01 09:35:00,30.0,24.0,30.04,WNW,294,2.0,7.0,78,0.00,,,0.00,91,Wunderground v.1.15,2013-03-01 14:35:00,
2013-03-01 09:40:00,30.1,23.8,30.05,WNW,293,1.0,7.0,77,0.00,,,0.00,105,Wunderground v.1.15,2013-03-01 14:40:00,
2013-03-01 09:45:00,30.2,23.9,30.04,WNW,284,2.0,7.0,77,0.00,,,0.00,100,Wunderground v.1.15,2013-03-01 14:45:00,
2013-03-01 09:50:00,30.3,24.0,30.04,WSW,242,2.0,2.0,77,0.00,,,0.00,102,Wunderground v.1.15,2013-03-01 14:50:00,
2013-03-01 10:00:00,30.5,23.8,30.05,WSW,237,2.0,7.0,76,0.00,,,0.00,97,Wunderground v.1.15,2013-03-01 15:00:00,
2013-03-01 10:10:00,30.6,24.2,30.05,NW,306,2.0,2.0,77,0.00,,,0.00,105,Wunderground v.1.15,2013-03-01 15:10:00,
2013-03-01 10:15:00,30.6,24.2,30.05,North,351,1.0,4.0,77,0.00,,,0.00,95,Wunderground v.1.15,2013-03-01 15:15:00,
2013-03-01 10:20:00,30.7,24.3,30.05,South,183,1.0,7.0,77,0.00,,,0.00,86,Wunderground v.1.15,2013-03-01 15:20:00,
2013-03-01 10:30:00,30.6,24.2,30.05,NNW,333,3.0,7.0,77,0.00,,,0.00,100,Wunderground v.1.15,2013-03-01 15:30:00,
2013-03-01 10:35:00,30.6,24.6,30.05,North,360,2.0,7.0,78,0.00,,,0.00,90,Wunderground v.1.15,2013-03-01 15:35:00,
2013-03-01 10:45:00,30.7,24.7,30.06,West,267,1.0,7.0,78,0.00,,,0.00,97,Wunderground v.1.15,2013-03-01 15:45:00,
2013-03-01 10:50:00,30.7,24.7,30.06,WSW,248,1.0,1.0,78,0.00,,,0.00,84,Wunderground v.1.15,2013-03-01 15:50:00,
2013-03-01 10:55:00,30.7,25.0,30.06,WSW,249,1.0,7.0,79,0.00,,,0.00,84,Wunderground v.1.15,2013-03-01 15:55:00,
2013-03-01 11:00:00,30.8,24.7,30.06,NW,325,1.0,7.0,78,0.00,,,0.00,98,Wunderground v.1.15,2013-03-01 16:00:00,
2013-03-01 11:10:00,30.9,24.8,30.06,West,270,1.0,7.0,78,0.00,,,0.00,178,Wunderground v.1.15,2013-03-01 16:10:00,
2013-03-01 11:15:00,31.0,24.9,30.05,NNW,340,1.0,7.0,78,0.00,,,0.00,171,Wunderground v.1.15,2013-03-01 16:15:00,
2013-03-01 11:20:00,31.1,24.7,30.05,NNW,336,1.0,7.0,77,0.00,,,0.00,130,Wunderground v.1.15,2013-03-01 16:20:00,
2013-03-01 11:30:00,31.3,24.6,30.05,SSW,196,1.0,7.0,76,0.00,,,0.00,109,Wunderground v.1.15,2013-03-01 16:30:00,
2013-03-01 11:35:00,31.4,24.4,30.05,West,275,2.0,7.0,75,0.00,,,0.00,111,Wunderground v.1.15,2013-03-01 16:35:00,
2013-03-01 11:40:00,31.5,24.5,30.06,WSW,249,2.0,7.0,75,0.00,,,0.00,98,Wunderground v.1.15,2013-03-01 16:40:00,
2013-03-01 11:45:00,31.5,24.8,30.06,West,267,1.0,7.0,76,0.00,,,0.00,95,Wunderground v.1.15,2013-03-01 16:45:00,
2013-03-01 11:55:00,31.5,25.1,30.06,West,275,1.0,7.0,77,0.00,,,0.00,102,Wunderground v.1.15,2013-03-01 16:55:00,
2013-03-01 12:00:00,31.4,24.7,30.06,North,360,2.0,8.0,76,0.00,,,0.00,98,Wunderground v.1.15,2013-03-01 17:00:00,
2013-03-01 12:10:00,31.4,25.0,30.06,WNW,302,3.0,7.0,77,0.00,,,0.00,109,Wunderground v.1.15,2013-03-01 17:10:00,
2013-03-01 12:20:00,31.3,24.9,30.05,SW,223,4.0,7.0,77,0.00,,,0.00,125,Wunderground v.1.15,2013-03-01 17:20:00,
2013-03-01 12:30:00,31.3,24.9,30.05,NW,324,2.0,7.0,77,0.00,,,0.00,100,Wunderground v.1.15,2013-03-01 17:30:00,
2013-03-01 12:40:00,31.4,25.3,30.06,NW,319,2.0,2.0,78,0.00,,,0.00,70,Wunderground v.1.15,2013-03-01 17:40:00,
2013-03-01 12:45:00,31.4,25.3,30.05,SSW,202,2.0,7.0,78,0.00,,,0.00,70,Wunderground v.1.15,2013-03-01 17:45:00,
2013-03-01 12:50:00,31.3,25.5,30.05,NW,326,2.0,7.0,79,0.00,,,0.00,95,Wunderground v.1.15,2013-03-01 17:50:00,
2013-03-01 13:00:00,31.4,25.3,30.04,WSW,258,3.0,7.0,78,0.00,,,0.00,176,Wunderground v.1.15,2013-03-01 18:00:00,
2013-03-01 13:10:00,31.6,25.8,30.04,WSW,240,1.0,1.0,79,0.00,,,0.00,95,Wunderground v.1.15,2013-03-01 18:10:00,
2013-03-01 13:15:00,31.7,25.6,30.04,WNW,291,1.0,2.0,78,0.00,,,0.00,90,Wunderground v.1.15,2013-03-01 18:15:00,
2013-03-01 13:20:00,31.7,25.9,30.04,West,279,3.0,3.0,79,0.00,,,0.00,90,Wunderground v.1.15,2013-03-01 18:20:00,
2013-03-01 13:30:00,31.7,25.9,30.03,West,275,2.0,2.0,79,0.00,,,0.00,114,Wunderground v.1.15,2013-03-01 18:30:00,
2013-03-01 13:35:00,31.7,25.9,30.03,NW,312,1.0,7.0,79,0.00,,,0.00,160,Wunderground v.1.15,2013-03-01 18:35:00,
2013-03-01 13:40:00,31.8,26.0,30.03,NNW,346,1.0,1.0,79,0.00,,,0.00,230,Wunderground v.1.15,2013-03-01 18:40:00,
2013-03-01 13:50:00,32.3,26.2,30.02,West,272,1.0,1.0,78,0.00,,,0.00,151,Wunderground v.1.15,2013-03-01 18:50:00,
2013-03-01 13:55:00,32.5,26.4,30.02,NW,313,1.0,2.0,78,0.00,,,0.00,144,Wunderground v.1.15,2013-03-01 18:55:00,
2013-03-01 14:00:00,32.6,26.2,30.02,WSW,258,1.0,7.0,77,0.00,,,0.00,120,Wunderground v.1.15,2013-03-01 19:00:00,
2013-03-01 14:10:00,32.8,26.4,30.02,WSW,257,2.0,7.0,77,0.00,,,0.00,304,Wunderground v.1.15,2013-03-01 19:10:00,
2013-03-01 14:20:00,33.2,25.8,30.02,WNW,302,2.0,7.0,74,0.00,,,0.00,120,Wunderground v.1.15,2013-03-01 19:20:00,
2013-03-01 14:25:00,33.2,25.8,30.01,SW,229,4.0,7.0,74,0.00,,,0.00,165,Wunderground v.1.15,2013-03-01 19:25:00,
2013-03-01 14:30:00,33.3,25.9,30.01,NW,324,4.0,4.0,74,0.00,,,0.00,223,Wunderground v.1.15,2013-03-01 19:30:00,
2013-03-01 14:35:00,33.3,25.9,30.01,NNW,339,3.0,7.0,74,0.00,,,0.00,199,Wunderground v.1.15,2013-03-01 19:35:00,
2013-03-01 14:40:00,33.4,26.3,30.01,NW,311,3.0,7.0,75,0.00,,,0.00,297,Wunderground v.1.15,2013-03-01 19:40:00,
2013-03-01 14:50:00,33.8,26.4,30.01,SSW,206,4.0,4.0,74,0.00,,,0.00,276,Wunderground v.1.15,2013-03-01 19:50:00,
2013-03-01 15:00:00,34.0,26.3,30.01,West,277,4.0,8.0,73,0.00,,,0.00,248,Wunderground v.1.15,2013-03-01 20:00:00,
2013-03-01 15:10:00,33.9,25.8,30.01,SW,219,5.0,5.0,72,0.00,,,0.00,225,Wunderground v.1.15,2013-03-01 20:10:00,
2013-03-01 15:15:00,34.3,26.2,30.00,NE,46,4.0,7.0,72,0.00,,,0.00,311,Wunderground v.1.15,2013-03-01 20:15:00,
2013-03-01 15:25:00,34.6,26.2,30.00,NNW,330,3.0,5.0,71,0.00,,,0.00,76,Wunderground v.1.15,2013-03-01 20:25:00,
2013-03-01 15:30:00,34.6,25.8,30.00,West,277,3.0,3.0,70,0.00,,,0.00,109,Wunderground v.1.15,2013-03-01 20:30:00,
2013-03-01 15:40:00,34.4,25.6,30.01,WSW,246,3.0,3.0,70,0.00,,,0.00,72,Wunderground v.1.15,2013-03-01 20:40:00,
2013-03-01 15:45:00,34.2,25.8,30.01,WNW,288,3.0,7.0,71,0.00,,,0.00,62,Wunderground v.1.15,2013-03-01 20:45:00,
2013-03-01 15:50:00,34.2,25.8,30.01,NW,306,2.0,7.0,71,0.00,,,0.00,69,Wunderground v.1.15,2013-03-01 20:50:00,
2013-03-01 15:55:00,34.1,26.0,30.01,WSW,241,1.0,7.0,72,0.00,,,0.00,39,Wunderground v.1.15,2013-03-01 20:55:00,
2013-03-01 16:00:00,34.0,25.9,30.02,WSW,257,2.0,7.0,72,0.00,,,0.00,42,Wunderground v.1.15,2013-03-01 21:00:00,
2013-03-01 16:10:00,33.4,26.3,30.02,WSW,244,4.0,7.0,75,0.00,,,0.00,42,Wunderground v.1.15,2013-03-01 21:10:00,
2013-03-01 16:20:00,32.9,26.2,30.02,West,281,4.0,4.0,76,0.00,,,0.00,65,Wunderground v.1.15,2013-03-01 21:20:00,
2013-03-01 16:25:00,32.8,26.4,30.02,West,276,2.0,7.0,77,0.00,,,0.00,54,Wunderground v.1.15,2013-03-01 21:25:00,
2013-03-01 16:35:00,32.6,26.2,30.02,SW,214,2.0,5.0,77,0.00,,,0.00,42,Wunderground v.1.15,2013-03-01 21:35:00,
2013-03-01 16:40:00,32.5,26.4,30.02,NNW,345,2.0,2.0,78,0.00,,,0.00,26,Wunderground v.1.15,2013-03-01 21:40:00,
2013-03-01 16:45:00,32.4,26.3,30.02,NNW,347,2.0,5.0,78,0.00,,,0.00,25,Wunderground v.1.15,2013-03-01 21:45:00,
2013-03-01 16:50:00,32.3,26.5,30.02,South,180,2.0,7.0,79,0.00,,,0.00,39,Wunderground v.1.15,2013-03-01 21:50:00,
2013-03-01 16:55:00,32.2,26.4,30.02,WSW,257,1.0,7.0,79,0.00,,,0.00,32,Wunderground v.1.15,2013-03-01 21:55:00,
2013-03-01 17:00:00,32.1,26.3,30.02,NNE,15,2.0,2.0,79,0.00,,,0.00,21,Wunderground v.1.15,2013-03-01 22:00:00,
2013-03-01 17:10:00,32.0,26.2,30.02,NW,304,2.0,7.0,79,0.00,,,0.00,86,Wunderground v.1.15,2013-03-01 22:10:00,
2013-03-01 17:15:00,32.0,26.2,30.02,NW,318,2.0,7.0,79,0.00,,,0.00,169,Wunderground v.1.15,2013-03-01 22:15:00,
2013-03-01 17:20:00,32.2,26.4,30.02,SW,217,2.0,2.0,79,0.00,,,0.00,84,Wunderground v.1.15,2013-03-01 22:20:00,
2013-03-01 17:30:00,32.4,26.3,30.02,NNE,24,1.0,1.0,78,0.00,,,0.00,63,Wunderground v.1.15,2013-03-01 22:30:00,
2013-03-01 17:35:00,32.4,26.0,30.03,WNW,302,2.0,4.0,77,0.00,,,0.00,56,Wunderground v.1.15,2013-03-01 22:35:00,
2013-03-01 17:40:00,32.5,25.8,30.03,NNE,24,3.0,3.0,76,0.00,,,0.00,33,Wunderground v.1.15,2013-03-01 22:40:00,
2013-03-01 17:45:00,32.4,25.7,30.03,West,262,2.0,7.0,76,0.00,,,0.00,33,Wunderground v.1.15,2013-03-01 22:45:00,
2013-03-01 17:50:00,32.5,25.8,30.03,West,260,1.0,1.0,76,0.00,,,0.00,23,Wunderground v.1.15,2013-03-01 22:50:00,
2013-03-01 18:00:00,32.5,26.1,30.03,SSW,200,0.0,7.0,77,0.00,,,0.00,9,Wunderground v.1.15,2013-03-01 23:00:00,
2013-03-01 18:10:00,32.4,26.0,30.04,NW,326,0.0,7.0,77,0.00,,,0.00,0,Wunderground v.1.15,2013-03-01 23:10:00,
2013-03-01 18:15:00,32.4,26.3,30.04,NW,326,0.0,7.0,78,0.00,,,0.00,0,Wunderground v.1.15,2013-03-01 23:15:00,
2013-03-01 18:25:00,32.3,26.2,30.04,NW,310,0.0,7.0,78,0.00,,,0.00,0,Wunderground v.1.15,2013-03-01 23:25:00,
2013-03-01 18:30:00,32.2,26.1,30.04,NNW,345,0.0,7.0,78,0.00,,,0.00,0,Wunderground v.1.15,2013-03-01 23:30:00,
2013-03-01 18:40:00,32.1,26.3,30.05,SW,215,0.0,7.0,79,0.00,,,0.00,0,Wunderground v.1.15,2013-03-01 23:40:00,
2013-03-01 18:45:00,32.0,26.2,30.05,WSW,248,0.0,7.0,79,0.00,,,0.00,0,Wunderground v.1.15,2013-03-01 23:45:00,
2013-03-01 18:50:00,32.0,26.2,30.05,NW,306,0.0,7.0,79,0.00,,,0.00,0,Wunderground v.1.15,2013-03-01 23:50:00,
2013-03-01 18:55:00,31.9,26.4,30.05,WNW,283,0.0,7.0,80,0.00,,,0.00,0,Wunderground v.1.15,2013-03-01 23:55:00,
2013-03-01 19:00:00,31.9,26.4,30.05,West,275,0.0,7.0,80,0.00,,,0.00,0,Wunderground v.1.15,2013-03-02 00:00:00,
2013-03-01 19:10:00,31.8,26.3,30.05,SW,233,1.0,1.0,80,0.00,,,0.00,0,Wunderground v.1.15,2013-03-02 00:10:00,
2013-03-01 19:15:00,31.8,26.6,30.05,North,355,0.0,4.0,81,0.00,,,0.00,0,Wunderground v.1.15,2013-03-02 00:15:00,
2013-03-01 19:20:00,31.7,26.2,30.05,North,355,0.0,7.0,80,0.00,,,0.00,0,Wunderground v.1.15,2013-03-02 00:20:00,
2013-03-01 19:30:00,31.6,26.1,30.05,SW,219,0.0,7.0,80,0.00,,,0.00,0,Wunderground v.1.15,2013-03-02 00:30:00,
2013-03-01 19:35:00,31.6,26.1,30.05,SW,219,0.0,7.0,80,0.00,,,0.00,0,Wunderground v.1.15,2013-03-02 00:35:00,
2013-03-01 19:45:00,31.5,26.0,30.05,NE,34,2.0,7.0,80,0.00,,,0.00,0,Wunderground v.1.15,2013-03-02 00:45:00,
2013-03-01 19:50:00,31.5,26.0,30.05,NE,42,2.0,2.0,80,0.00,,,0.00,0,Wunderground v.1.15,2013-03-02 00:50:00,
2013-03-01 19:55:00,31.4,26.2,30.05,SSW,206,1.0,7.0,81,0.00,,,0.00,0,Wunderground v.1.15,2013-03-02 00:55:00,
2013-03-01 20:00:00,31.4,26.2,30.05,SW,236,1.0,1.0,81,0.00,,,0.00,0,Wunderground v.1.15,2013-03-02 01:00:00,
2013-03-01 20:10:00,31.2,26.0,30.06,NNW,348,0.0,7.0,81,0.00,,,0.00,0,Wunderground v.1.15,2013-03-02 01:10:00,
2013-03-01 20:20:00,31.2,26.0,30.06,NNW,348,0.0,7.0,81,0.00,,,0.00,0,Wunderground v.1.15,2013-03-02 01:20:00,
2013-03-01 20:25:00,31.2,26.0,30.06,NNW,348,0.0,7.0,81,0.00,,,0.00,0,Wunderground v.1.15,2013-03-02 01:25:00,
2013-03-01 20:30:00,31.1,26.0,30.06,NNW,348,0.0,7.0,81,0.00,,,0.00,0,Wunderground v.1.15,2013-03-02 01:30:00,
2013-03-01 20:40:00,31.1,26.2,30.06,NNW,348,0.0,7.0,82,0.00,,,0.00,0,Wunderground v.1.15,2013-03-02 01:40:00,
2013-03-01 20:45:00,31.1,26.2,30.06,NNW,348,0.0,7.0,82,0.00,,,0.00,0,Wunderground v.1.15,2013-03-02 01:45:00,
2013-03-01 20:50:00,31.1,26.2,30.06,NNW,348,0.0,7.0,82,0.00,,,0.00,0,Wunderground v.1.15,2013-03-02 01:50:00,
2013-03-01 20:55:00,31.1,26.2,30.06,NNW,348,0.0,7.0,82,0.00,,,0.00,0,Wunderground v.1.15,2013-03-02 01:55:00,
2013-03-01 21:00:00,31.0,26.1,30.06,NNW,348,0.0,7.0,82,0.00,,,0.00,0,Wunderground v.1.15,2013-03-02 02:00:00,
2013-03-01 21:10:00,31.0,26.1,30.06,NNW,348,0.0,7.0,82,0.00,,,0.00,0,Wunderground v.1.15,2013-03-02 02:10:00,
2013-03-01 21:15:00,31.0,26.1,30.06,NNE,25,1.0,7.0,82,0.00,,,0.00,0,Wunderground v.1.15,2013-03-02 02:15:00,
2013-03-01 21:25:00,31.0,26.1,30.06,West,281,1.0,7.0,82,0.00,,,0.00,0,Wunderground v.1.15,2013-03-02 02:25:00,
2013-03-01 21:30:00,31.0,26.1,30.06,South,171,1.0,1.0,82,0.00,,,0.00,0,Wunderground v.1.15,2013-03-02 02:30:00,
2013-03-01 21:35:00,30.9,26.1,30.06,WSW,254,0.0,2.0,82,0.00,,,0.00,0,Wunderground v.1.15,2013-03-02 02:35:00,
2013-03-01 21:40:00,30.9,26.1,30.06,WSW,252,0.0,7.0,82,0.00,,,0.00,0,Wunderground v.1.15,2013-03-02 02:40:00,
2013-03-01 21:50:00,30.9,26.1,30.07,West,263,1.0,1.0,82,0.00,,,0.00,0,Wunderground v.1.15,2013-03-02 02:50:00,
2013-03-01 21:55:00,30.9,26.1,30.07,WSW,245,0.0,7.0,82,0.00,,,0.00,0,Wunderground v.1.15,2013-03-02 02:55:00,
2013-03-01 22:00:00,30.9,26.1,30.07,WSW,245,0.0,7.0,82,0.00,,,0.00,0,Wunderground v.1.15,2013-03-02 03:00:00,
2013-03-01 22:10:00,30.9,26.1,30.06,WSW,246,0.0,7.0,82,0.00,,,0.00,0,Wunderground v.1.15,2013-03-02 03:10:00,
2013-03-01 22:20:00,30.8,26.0,30.06,WSW,246,0.0,7.0,82,0.00,,,0.00,0,Wunderground v.1.15,2013-03-02 03:20:00,
2013-03-01 22:30:00,30.8,26.0,30.07,SSW,200,0.0,7.0,82,0.00,,,0.00,0,Wunderground v.1.15,2013-03-02 03:30:00,
2013-03-01 22:35:00,30.8,26.0,30.07,SSW,200,0.0,7.0,82,0.00,,,0.00,0,Wunderground v.1.15,2013-03-02 03:35:00,
2013-03-01 22:40:00,30.8,26.0,30.06,SSW,200,0.0,7.0,82,0.00,,,0.00,0,Wunderground v.1.15,2013-03-02 03:40:00,
2013-03-01 22:50:00,30.8,25.7,30.06,SSW,208,0.0,7.0,81,0.00,,,0.00,0,Wunderground v.1.15,2013-03-02 03:50:00,
2013-03-01 23:00:00,30.7,25.6,30.06,SSW,205,0.0,7.0,81,0.00,,,0.00,0,Wunderground v.1.15,2013-03-02 04:00:00,
2013-03-01 23:10:00,30.7,25.6,30.05,SSW,206,0.0,7.0,81,0.00,,,0.00,0,Wunderground v.1.15,2013-03-02 04:10:00,
2013-03-01 23:15:00,30.7,25.9,30.05,SSW,205,0.0,7.0,82,0.00,,,0.00,0,Wunderground v.1.15,2013-03-02 04:15:00,
2013-03-01 23:20:00,30.7,25.9,30.05,SW,216,0.0,7.0,82,0.00,,,0.00,0,Wunderground v.1.15,2013-03-02 04:20:00,
2013-03-01 23:30:00,30.6,25.8,30.05,NNE,13,0.0,7.0,82,0.00,,,0.00,0,Wunderground v.1.15,2013-03-02 04:30:00,
2013-03-01 23:35:00,30.6,25.8,30.05,WNW,283,0.0,7.0,82,0.00,,,0.00,0,Wunderground v.1.15,2013-03-02 04:35:00,
2013-03-01 23:40:00,30.5,25.7,30.04,SSE,156,0.0,7.0,82,0.00,,,0.00,0,Wunderground v.1.15,2013-03-02 04:40:00,
2013-03-01 23:50:00,30.5,25.7,30.04,NE,46,0.0,7.0,82,0.00,,,0.00,0,Wunderground v.1.15,2013-03-02 04:50:00,